Location: Riddle Hill
(39.7867°N, 89.7645°W)
Time: 21:53:53
(UTC+00:00)

Cosmos 2369 - Pass Details

Date: 29 October 2020
Orbit: 841 x 854 km, 71.0° (Epoch: 01 December)

Event Time Altitude Azimuth Distance (km) Brightness Sun altitude
Rises 23:29:55 0° 173° (S) 3,406 6.9 -6.4°
Reaches altitude 10° 23:32:37 10° 163° (SSE) 2,474 6.1 -6.9°
Maximum altitude 23:37:31 31° 103° (ESE) 1,455 4.5 -7.8°
Drops below altitude 10° 23:42:27 10° 43° (NE) 2,482 5.7 -8.8°
Sets 23:45:09 0° 34° (NE) 3,420 6.4 -9.3°
